HST
1 20580U 90037B   24133.93546526  .00010058  00000-0  48200-3 0  9998
2 20580  28.4678 221.2346 0002503  24.4334 335.6376 15.17253299671676
ISS (ZARYA)
1 25544U 98067A   24134.36607418  .00032166  00000-0  54399-3 0  9990
2 25544  51.6380 128.0115 0002966 160.3223 355.4748 15.51283459453149
CXO
1 25867U 99040B   24136.12859698  .00000643  00000-0  00000-0 0  9997
2 25867  40.4499 156.9026 8925978 294.2298 359.7347  0.37810674 14439